BEIDOU-3 G4 (C62)

Last updated on Mon Jun 22 2026 00:03:31 GMT+0000 (Coordinated Universal Time)

1 56564U 23066A 26172.58123920 -.00000282 00000+0 00000+0 0 9992 2 56564 0.4811 332.6937 0004518 178.0024 108.3779 1.00272609 11436
UTC large
Height (km)
Speed (km/s)
/
Latitude / Longitude
Inclination (degrees)
Orbital Period (minutes)
Azimuth
Elevation
Range (km)
Doppler Factor

Next 0 passes for location: London (51.5072 / 0.1276)

No passes found over London.
BEIDOU-3 G4 (C62)